Location: Newark
(44.3248°N, 23.7839°E)
Time: 16:12:46
(UTC+00:00)

FO-29 - Pass Details

Date: 02 May 2024
Orbit: 801 x 1320 km, 98.6° (Epoch: 19 May)

Event Time Altitude Azimuth Distance (km) Brightness Sun altitude
Rises 01:48:43 0° 6° (N) 4,274 13.6 -13.9°
Reaches altitude 10° 01:51:46 10° 356° (N) 3,334 12.8 -13.5°
Maximum altitude 01:58:11 29° 301° (WNW) 2,215 11.2 -12.6°
Enters shadow 02:03:42 13° 250° (WSW) 3,073 11.5 -11.8°
